User: anonymous   Login
Location: Unspecified
(0.0000°N, 0.0000°E)
Time: 07:13:12
(UTC+00:00)
Language:

BEESAT 2 - Orbit

View from above orbital plane
View from above orbital plane
View from above satellite
View from above satellite

Ground track
Ground track

The orbit data is extracted from the following two-line orbital elements,

1 39136U 13015G   19288.70925240  .00000649  00000-0  42389-4 0  9998
2 39136  64.8705  18.9345 0028418 296.8615  62.9606 15.17070835358220
Epoch (UTC): 15 October 2019 17:01:19
Eccentricity: 0.0028418
inclination: 64.8705°
perigee height: 495 km
apogee height: 534 km
right ascension of ascending node: 18.9345°
argument of perigee: 296.8615°
revolutions per day: 15.17070835
mean anomaly at epoch: 62.9606°
orbit number at epoch: 35822

The dashed part of the orbit path shows where the satellite is in the earth's shadow,  

DLR